Location: Peach Mountain Observatory
(42.3967°N, 83.9367°W)
Time: 09:24:02
(UTC-05:00)

S-56A Canister/Altair - Pass Details

Date: 30 January 2020
Orbit: 633 x 2500 km, 38.9° (Epoch: 28 February)

Event Time Altitude Azimuth Distance (km) Brightness Sun altitude
Rises 22:56:14 0° 275° (W) 3,703 11.5 -55.5°
Enters shadow 22:56:41 - 275° (W) 3,527 11.3 -55.5°
Reaches altitude 10° 22:59:19 10° 269° (W) 2,514 - -55.9°
Maximum altitude 23:04:34 41° 200° (SSW) 1,022 - -56.7°
Drops below altitude 10° 23:08:49 10° 129° (SE) 2,031 - -57.3°
Sets 23:11:04 0° 122° (ESE) 2,910 - -57.6°
